User: anonymous   Login
Location: Unspecified
(0.0000°N, 0.0000°E)
Time: 19:08:59
(UTC+00:00)
Language:

SO-67 - Orbit

View from above orbital plane
View from above orbital plane
View from above satellite
View from above satellite

Ground track
Ground track

The orbit data is extracted from the following two-line orbital elements,

1 35870U 09049F   19341.38963896  .00005650  00000-0  60722-4 0  9992
2 35870  97.0444   3.6196 0000999  43.0898  82.5945 15.64167411573922
Epoch (UTC): 07 December 2019 09:21:04
Eccentricity: 0.0000999
inclination: 97.0444°
perigee height: 375 km
apogee height: 376 km
right ascension of ascending node: 3.6196°
argument of perigee: 43.0898°
revolutions per day: 15.64167411
mean anomaly at epoch: 82.5945°
orbit number at epoch: 57392

The dashed part of the orbit path shows where the satellite is in the earth's shadow,  

DLR